Charlottetown, Prince Edward Island

5:54 PM ADT on August 19, 2017 (GMT -0300)
Charlottetown

Weather History for CYYG - December, 2012

Change the Weather History Date:

Monday, December 31, 2012

  Actual Average Record
Temperature  
Mean Temperature 22 °F -  
Max Temperature 28 °F 26 °F 42 °F (2003)
Min Temperature 17 °F 10 °F -2 °F (1996)
Degree Days  
Heating Degree Days 42    
Moisture  
Dew Point 17 °F    
Average Humidity 78    
Maximum Humidity 93    
Minimum Humidity 58    
Precipitation  
Precipitation 0.00 in 0.14 in - ()
Sea Level Pressure  
Sea Level Pressure 29.28 in    
Wind  
Wind Speed 19 mph ()    
Max Wind Speed 28 mph    
Max Gust Speed 46 mph    
Visibility 12.0 miles    
Events Snow    
Averages and records for this station are not official NWS values.
T = Trace of Precipitation, MM = Missing Value Source: Averaged Metar Reports

Daily Weather History Graph

Daily Weather History Graph

Search for Another Location

Airport or City:

Trip Planner

Search our weather history database for the weather conditions in past years. The results will help you decide how hot, cold, wet, or windy it might be!

Date:

Astronomy

Dec. 31, 2012 Rise Set
Actual Time 7:55 AM AST 4:36 PM AST
Civil Twilight 7:20 AM AST 5:10 PM AST
Nautical Twilight 6:42 AM AST 5:48 PM AST
Astronomical Twilight 6:06 AM AST 6:25 PM AST
Moon 8:15 PM AST (12/31) 9:23 AM AST (12/31)
Length of Visible Light 9h 49m
Length of Day
8h 40m
Waning Gibbous, 90% of the Moon is Illuminated
Dec 31
Waning Gibbous
Jan 4
Last Quarter
Jan 11
New
Jan 18
First Quarter
Jan 27
Full

Hourly Weather History & Observations

Time (AST) Temp. Windchill Dew Point Humidity Pressure Visibility Wind Dir Wind Speed Gust Speed Precip Events Conditions
12:00 AM 30.2 °F 16.8 °F 28.4 °F 93% 28.96 in 1.5 mi WNW 23.0 mph 38.0 mph N/A Snow Light Snow
12:46 AM 28.4 °F 13.8 °F 26.6 °F 93% 28.99 in 3.0 mi WNW 25.3 mph 42.6 mph N/A Snow Light Freezing Drizzle
1:00 AM 28.4 °F 13.3 °F 26.6 °F 93% 29.00 in 3.0 mi WNW 27.6 mph 42.6 mph N/A Snow Light Freezing Drizzle
2:00 AM 28 °F - 25 °F 84% 29.04 in 5 mi WNW 25.3 mph - - Snow Light Snow Showers
2:00 AM 28.4 °F 13.3 °F 24.8 °F 86% 29.04 in 5.0 mi WNW 27.6 mph 46.0 mph N/A Snow Light Snow Showers
3:00 AM 28.4 °F 14.7 °F 23.0 °F 80% 29.07 in 8.0 mi WNW 21.9 mph 36.8 mph N/A Snow Light Snow Showers
5:00 AM 23.0 °F 6.9 °F 19.4 °F 86% 29.14 in 10.0 mi West 24.2 mph 41.4 mph N/A Snow Light Snow Showers
6:00 AM 23.0 °F 8.7 °F 17.6 °F 80% 29.17 in 8.0 mi WNW 18.4 mph 32.2 mph N/A Snow Light Snow Showers
6:39 AM 21.2 °F 5.2 °F 15.8 °F 80% 29.19 in 10.0 mi West 21.9 mph 33.4 mph N/A Snow Low Drifting Snow
7:00 AM 21.2 °F 4.9 °F 15.8 °F 80% 29.20 in 10.0 mi WNW 23.0 mph 33.4 mph N/A Snow Low Drifting Snow
8:00 AM 20 °F - 14 °F 70% 29.24 in 15 mi West 21.9 mph - - Snow Low Drifting Snow
8:00 AM 19.4 °F 3.6 °F 14.0 °F 80% 29.24 in 15.0 mi West 19.6 mph 34.5 mph N/A Snow Low Drifting Snow
9:00 AM 19.4 °F 3.2 °F 14.0 °F 80% 29.27 in 15.0 mi West 20.7 mph 29.9 mph N/A Snow Low Drifting Snow
10:00 AM 19.4 °F 2.8 °F 12.2 °F 74% 29.29 in 15.0 mi WNW 21.9 mph 43.7 mph N/A Snow Low Drifting Snow
11:00 AM 21.2 °F 4.9 °F 12.2 °F 68% 29.31 in 15.0 mi WNW 23.0 mph 35.7 mph N/A Snow Low Drifting Snow
12:00 PM 21.2 °F 5.6 °F 14.0 °F 74% 29.32 in 15.0 mi WNW 20.7 mph 34.5 mph N/A   Scattered Clouds
1:00 PM 21.2 °F 5.2 °F 14.0 °F 74% 29.34 in 15.0 mi West 21.9 mph 34.5 mph N/A   Mostly Cloudy
2:00 PM 22 °F - 13 °F 58% 29.36 in 15 mi West 19.6 mph - -   Partly Cloudy
2:00 PM 21.2 °F 6.0 °F 14.0 °F 74% 29.36 in 15.0 mi West 19.6 mph 33.4 mph N/A   Mostly Cloudy
3:00 PM 21.2 °F 5.2 °F 12.2 °F 68% 29.39 in 15.0 mi West 21.9 mph 34.5 mph N/A   Scattered Clouds
4:00 PM 21.2 °F 7.3 °F 14.0 °F 74% 29.43 in 15.0 mi West 16.1 mph 26.5 mph N/A   Mostly Cloudy
5:00 PM 19.4 °F 7.2 °F 14.0 °F 80% 29.44 in 15.0 mi West 11.5 mph 18.4 mph N/A   Partly Cloudy
6:00 PM 21.2 °F 8.3 °F 14.0 °F 74% 29.46 in 15.0 mi West 13.8 mph 21.9 mph N/A   Partly Cloudy
7:00 PM 19.4 °F 6.0 °F 15.8 °F 86% 29.48 in 15.0 mi West 13.8 mph 20.7 mph N/A   Partly Cloudy
8:00 PM 20 °F - 14 °F 67% 29.49 in 15 mi West 17.3 mph - -   Mostly Cloudy
8:00 PM 19.4 °F 5.0 °F 14.0 °F 80% 29.49 in 15.0 mi West 16.1 mph 26.5 mph N/A   Mostly Cloudy
9:00 PM 17.6 °F 3.7 °F 12.2 °F 79% 29.51 in 15.0 mi West 13.8 mph 27.6 mph N/A   Partly Cloudy
10:00 PM 17.6 °F 2.2 °F 12.2 °F 79% 29.51 in 15.0 mi West 17.3 mph 25.3 mph N/A   Partly Cloudy
11:00 PM 17.6 °F 4.3 °F 12.2 °F 79% 29.51 in 15.0 mi West 12.7 mph 19.6 mph N/A   Clear